星链-4023 (STARLINK-4023 )

导读

STARLINK-4023是美国太空探索技术公司SpaceX星链卫星互联网项目的一员,于2022年7月17日发射升空,作为星链星座的组网卫星,它运行在近地轨道,主要承担卫星互联网信号转发任务,可为全球偏远地区、海上船舶等提供宽带互联网接入服务,属于低轨通信卫星。

Basic Information
目录编号:
53135
目录名称:
STARLINK-4023
国际标识:
2022-083D
轨道中心:
EARTH
卫星名称:
星链-4023
卫星全名:
星链-4023 (STARLINK-4023 )
卫星状态:
在轨 (已飞行1431 天)
发射日期:
2022-07-17 UTC
国别 :
美国 (US)
星等 :
--
Orbit Information
数据来源 国际轨道数据 AOE轨道数据
星历时间 2026-06-17T09:00:16+0800
14小时前
查看轨道信息
2026-06-16T00:00:00+0800
1天前
查看轨道信息
半长轴 6916.977km 6917.837km
偏心率 0.0001425 0.0001299
轨道倾角 53.162° 53.159°
近地点辐角 113.169° 104.001°
升交点赤经 88.015° 94.200°
平近点角 246.945° 340.754°
近地点 537.854km 538.801km
远地点 539.826km 540.599km
周期 95.419分钟 95.437分钟
每日圈数 15.091357 15.088542
Detailed Information
固有亮度:
5
最大亮度:
2.5
卫星平台:
Starlink v1.5
覆盖范围:
全球
运营商:
太空探索技术公司
运营商所在国:
美国
制造商(研发单位):
太空探索技术公司
制造商所在国:
美国
使用方式:
暂无
Satellite Introduction
星链(Starlink)计划是由太空探索技术公司(SpaceX)提出的一个巨型低轨卫星互联网星座项目,计划在2019年至2024年间在太空搭建由约1.2万颗卫星组成的“星链”网络,其中1584颗将部署在地球上空550千米处的近地轨道,并从2020年开始工作。该卫星仍在工作。
2D Orbit Map
3D Orbit Map
Orbit Altitude Analysis Chart
Orbit Inclination Analysis Chart
Orbit Comprehensive Analysis Chart
View Comprehensive Chart